Chattahoochee River Whitewater Weather Center

Moon Phase Calendar



Online Cameras

 


      

Current Conditions in Phenix City
1/18/2021 7:01:58 PM

48°F
Feels Like 38
Clear
Humidity
30%
Pressure
30.18"
Wind
9.2 mph (W)
Dew Point
20°F
UV Index
0/10 (Low)
Visibility
6 mi

Hourly Forecast

Date & Time Mon, Jan 18
7:00 PM
Mon, Jan 18
8:00 PM
Mon, Jan 18
9:00 PM
Mon, Jan 18
10:00 PM
Mon, Jan 18
11:00 PM
Tue, Jan 19
12:00 AM
Tue, Jan 19
1:00 AM
Tue, Jan 19
2:00 AM
Tue, Jan 19
3:00 AM
Tue, Jan 19
4:00 AM
Tue, Jan 19
5:00 AM
Tue, Jan 19
6:00 AM
Tue, Jan 19
7:00 AM
Tue, Jan 19
8:00 AM
Tue, Jan 19
9:00 AM
Tue, Jan 19
10:00 AM
Tue, Jan 19
11:00 AM
Tue, Jan 19
12:00 PM
Tue, Jan 19
1:00 PM
Tue, Jan 19
2:00 PM
Tue, Jan 19
3:00 PM
Tue, Jan 19
4:00 PM
Tue, Jan 19
5:00 PM
Tue, Jan 19
6:00 PM
Tue, Jan 19
7:00 PM
Tue, Jan 19
8:00 PM
Tue, Jan 19
9:00 PM
Tue, Jan 19
10:00 PM
Tue, Jan 19
11:00 PM
Wed, Jan 20
12:00 AM
Wed, Jan 20
1:00 AM
Wed, Jan 20
2:00 AM
Wed, Jan 20
3:00 AM
Wed, Jan 20
4:00 AM
Wed, Jan 20
5:00 AM
Wed, Jan 20
6:00 AM
Wed, Jan 20
7:00 AM
Wed, Jan 20
8:00 AM
Wed, Jan 20
9:00 AM
Wed, Jan 20
10:00 AM
Wed, Jan 20
11:00 AM
Wed, Jan 20
12:00 PM
Wed, Jan 20
1:00 PM
Wed, Jan 20
2:00 PM
Wed, Jan 20
3:00 PM
Wed, Jan 20
4:00 PM
Wed, Jan 20
5:00 PM
Wed, Jan 20
6:00 PM
Condition
Clear

Clear

Clear

Clear

Clear

Clear

Clear

Clear

Clear

Clear

Clear

Clear

Clear

Clear

Clear

Clear

Clear

Clear

Clear

Clear

Clear

Clear

Clear

Clear

Clouds

Clouds

Clouds

Clouds

Clouds

Clouds

Clouds

Clouds

Clouds

Clouds

Clouds

Clouds

Clouds

Clouds

Clouds

Clouds

Clouds

Clouds

Clouds

Clouds

Clouds

Clouds

Clouds

Clouds
Temperature 48°F46°F44°F43°F42°F41°F41°F40°F40°F39°F39°F39°F38°F38°F43°F47°F52°F56°F58°F60°F61°F60°F59°F53°F53°F53°F53°F52°F50°F51°F51°F49°F50°F50°F50°F49°F49°F48°F48°F49°F53°F55°F58°F60°F60°F60°F59°F54°F
Feels Like 40°F40°F39°F38°F37°F37°F37°F36°F35°F35°F34°F34°F33°F34°F38°F42°F46°F49°F51°F53°F54°F54°F53°F48°F48°F48°F48°F47°F45°F46°F47°F45°F45°F45°F46°F45°F43°F43°F43°F44°F47°F49°F51°F53°F54°F54°F54°F49°F
Cloudiness 1%1%0%0%0%0%0%0%0%0%0%0%0%0%0%0%0%0%0%0%0%0%0%0%15%99%95%83%78%81%84%100%95%97%98%98%98%100%100%100%77%79%67%11%55%45%37%49%
Visibility 6 mi6 mi6 mi6 mi6 mi6 mi6 mi6 mi6 mi6 mi6 mi6 mi6 mi6 mi6 mi6 mi6 mi6 mi6 mi6 mi6 mi6 mi6 mi6 mi6 mi6 mi6 mi6 mi6 mi6 mi6 mi6 mi6 mi6 mi6 mi6 mi6 mi6 mi6 mi6 mi6 mi6 mi6 mi6 mi6 mi6 mi6 mi6 mi
Precipitation 0%0%0%0%0%0%0%0%0%0%0%0%0%0%0%0%0%0%0%0%0%0%0%0%0%0%0%0%0%0%0%0%0%0%0%0%0%0%0%0%0%0%0%0%0%0%0%0%
Humidity 30%46%56%62%67%68%69%70%71%72%73%74%76%76%65%55%49%42%39%38%38%40%48%56%56%56%58%63%68%69%72%78%78%82%85%84%82%80%75%67%52%43%37%35%36%37%43%50%
Dew Point 20°F27°F30°F31°F32°F31°F30°F30°F30°F30°F30°F30°F30°F31°F32°F32°F33°F33°F34°F34°F35°F36°F39°F38°F38°F38°F39°F40°F40°F41°F42°F43°F44°F45°F46°F45°F44°F42°F41°F39°F36°F34°F32°F33°F33°F34°F37°F36°F
Pressure 30.18"30.18"30.24"30.24"30.27"30.27"30.27"30.27"30.27"30.27"30.27"30.3"30.33"30.36"30.39"30.39"30.39"30.39"30.36"30.33"30.3"30.3"30.33"30.33"30.36"30.36"30.36"30.36"30.36"30.36"30.36"30.36"30.36"30.33"30.33"30.36"30.36"30.39"30.39"30.39"30.39"30.36"30.33"30.3"30.27"30.27"30.24"30.24"
Wind Speed 4.4 mph4 mph2.9 mph2.9 mph2.1 mph0.9 mph0.8 mph1.7 mph2.3 mph1.8 mph2.3 mph2.4 mph2.3 mph2.1 mph2.1 mph3.9 mph4.7 mph5.3 mph6.1 mph6.2 mph6.4 mph7 mph5.4 mph4 mph4.7 mph4.3 mph3.8 mph3.7 mph3.9 mph4.1 mph3.9 mph4.7 mph5.5 mph6.5 mph6.5 mph5.9 mph6.7 mph5.8 mph5 mph5.2 mph5.3 mph5.6 mph5.6 mph5.7 mph5.4 mph5.6 mph3.9 mph3.3 mph
Wind
Direction
250°
WSW
263°
W
278°
W
298°
WNW
320°
NW
324°
NW
231°
SW
200°
SSW
185°
S
216°
SW
218°
SW
231°
SW
232°
SW
224°
SW
211°
SSW
202°
SSW
206°
SSW
221°
SW
244°
WSW
244°
WSW
247°
WSW
259°
W
260°
W
268°
W
265°
W
250°
WSW
257°
WSW
271°
W
283°
WNW
276°
W
277°
W
280°
W
276°
W
290°
WNW
300°
WNW
321°
NW
328°
NNW
329°
NNW
332°
NNW
317°
NW
334°
NNW
322°
NW
325°
NW
305°
NW
289°
WNW
283°
WNW
276°
W
280°
W

Daily Forecast

Date High Low Precip. Humidity
Today
Jan 18

Clear
54 °F
36 °F
0%
46%
Tuesday
Jan 19

Clear
61 °F
38 °F
0%
42%
Wednesday
Jan 20

Clouds
60 °F
48 °F
0%
37%
Thursday
Jan 21

Rain
58 °F
49 °F
100%
80%
Friday
Jan 22

Rain
60 °F
49 °F
100%
80%
Saturday
Jan 23

Clouds
57 °F
38 °F
0%
47%
Sunday
Jan 24

Rain
55 °F
45 °F
50%
67%
Monday
Jan 25

Rain
67 °F
55 °F
100%
88%
Tuesday
Jan 26

Rain
61 °F
50 °F
100%
62%
Wednesday
Jan 27

Rain
61 °F
51 °F
32%
75%
Thursday
Jan 28

Clouds
65 °F
48 °F
0%
56%
Friday
Jan 29

Clouds
61 °F
53 °F
18%
67%
Saturday
Jan 30

Rain
71 °F
58 °F
100%
69%
Sunday
Jan 31

Clear
70 °F
53 °F
0%
56%
Monday
Feb 1

Clouds
65 °F
51 °F
0%
55%
Tuesday
Feb 2

Rain
68 °F
54 °F
38%
63%


Temperature 8-14 Day Outlook



Precipitation 8-14 Day Outlook




Quick Links
Chattahoochee River Whitewater News
Chattahoochee River Whitewater Photos
Chattahoochee River Whitewater Videos




About Us
Contact Us
Site Map
Search Site
Advertise With Us
   
www.ChattahoocheeRiverWhitewater.com
THE CHATTAHOOCHEE RIVER WHITEWATER WEBSITE

Copyright 2021, Discover Rivers
Privacy    |    Legal